Meteor 2-19 Rocket - Orbit

View from above orbital plane
View from above orbital plane
View from above satellite
View from above satellite

Ground track
Ground track

The orbit data is extracted from the following two-line orbital elements,

1 20671U 90057B   13145.07649984  .00000055  00000-0  35608-4 0  6676
2 20671 082.5466 111.7686 0015917 161.4023 317.3199 13.84555405157690
Epoch (UTC): 25 May 2013 01:50:09
Eccentricity: 0.0015917
inclination: 82.5466°
perigee height: 936 km
apogee height: 959 km
right ascension of ascending node: 111.7686°
argument of perigee: 161.4023°
revolutions per day: 13.84555405
mean anomaly at epoch: 317.3199°
orbit number at epoch: 15769

The dashed part of the orbit path shows where the satellite is in the earth's shadow,  

Developed and maintained by Chris Peat, Heavens-Above GmbH. Please read the updated FAQ before sending e-mail. Imprint. DLR